This demonstration page uses our WeatherBlox Daily Observations layout. Learn more.

Left ArrowRight Arrow

Hourly Observations for December 19, 2021

Temp ( °F °C ) Dew Point ( °F °C ) Humidity (%) Winds ( mph kmh ) Pressure ( in mb ) Visibility ( mi km ) Precip ( " mm )
12:59 am 00:59 Mostly Cloudy 69 20.6 61 16.1 76 76 SW 14 22 29.86 1011 10 16 0.00 0.00
1:59 am 01:59 Mostly Cloudy 69 20.6 60 15.6 73 73 SW 9 15 29.86 1011 10 16 0.00 0.00
2:59 am 02:59 Mostly Cloudy 68 20 60 15.6 76 76 WSW 8 13 29.87 1011 10 16 0.00 0.00
3:59 am 03:59 Mostly Cloudy 67 19.4 60 15.6 79 79 SSW 8 13 29.85 1011 10 16 0.00 0.00
4:59 am 04:59 Cloudy 66 18.9 60 15.6 81 81 SW 6 9 29.88 1012 10 16 0.01 0.25
5:59 am 05:59 Mostly Cloudy 66 18.9 60 15.6 81 81 WSW 7 11 29.90 1013 10 16 0.00 0.00
6:32 am 06:32 Cloudy with Rain 54 12.2 49 9.4 83 83 N 20 31 29.95 1014 3 4 0.06 1.52
6:36 am 06:36 Cloudy with Heavy Rain 53 11.7 49 9.4 86 86 NNE 22 35 29.95 1014 2 3 0.11 2.79
6:44 am 06:44 Cloudy with Heavy Rain 53 11.7 49 9.4 86 86 NNE 17 28 29.96 1015 2 2 0.19 4.83
6:51 am 06:51 Cloudy with Rain 53 11.7 49 9.4 86 86 NE 20 31 29.96 1015 2 3 0.24 6.10
6:59 am 06:59 Cloudy with Rain 52 11.1 49 9.4 89 89 NE 21 33 29.96 1014 2 3 0.29 7.37
7:01 am 07:01 Cloudy with Rain 52 11.1 49 9.4 89 89 NE 21 33 29.95 1014 2 3 0.01 0.25
7:16 am 07:16 Cloudy with Light Rain 52 11.1 49 9.4 89 89 NE 21 33 29.96 1015 3 5 0.05 1.27
7:59 am 07:59 Cloudy with Light Rain 51 10.6 46 7.8 83 83 NNE 20 31 30.01 1016 3 5 0.14 3.56
8:59 am 08:59 Cloudy with Light Rain 50 10 44 6.7 80 80 N 18 30 30.06 1018 3 5 0.07 1.78
9:59 am 09:59 Cloudy with Light Rain 47 8.3 42 5.6 83 83 NNE 21 33 30.08 1019 4 6 0.05 1.27
10:24 am 10:24 Cloudy with Rain 47 8.3 41 5 80 80 NNE 21 33 30.10 1019 2 3 0.05 1.27
10:59 am 10:59 Cloudy with Rain 46 7.8 41 5 83 83 N 20 31 30.10 1019 2 3 0.14 3.56
11:22 am 11:22 Cloudy with Light Rain 46 7.8 41 5 83 83 N 14 22 30.09 1019 4 6 0.04 1.02
11:30 am 11:30 Cloudy with Light Rain 46 7.8 41 5 83 83 N 18 30 30.10 1019 5 8 0.05 1.27
11:59 am 11:59 Cloudy with Light Rain 45 7.2 40 4.4 83 83 N 15 24 30.08 1019 4 6 0.08 2.03
12:21 pm 12:21 Cloudy with Light Rain 45 7.2 40 4.4 83 83 N 13 20 30.09 1019 5 8 0.02 0.51
12:59 pm 12:59 Cloudy with Light Rain 45 7.2 39 3.9 80 80 N 13 20 30.09 1019 5 8 0.04 1.02
1:17 pm 13:17 Cloudy with Light Rain 44 6.7 39 3.9 83 83 NNW 16 26 30.10 1019 4 6 0.03 0.76
1:59 pm 13:59 Cloudy with Light Rain 43 6.1 38 3.3 82 82 N 16 26 30.09 1019 3 5 0.11 2.79
2:59 pm 14:59 Cloudy with Light Rain 42 5.6 36 2.2 79 79 N 18 30 30.09 1019 9 14 0.05 1.27
3:59 pm 15:59 Cloudy with Light Rain 43 6.1 37 2.8 80 80 N 16 26 30.11 1020 10 16 0.01 0.25
4:59 pm 16:59 Mostly Cloudy 44 6.7 36 2.2 73 73 N 15 24 30.14 1021 10 16 0.00 0.00
5:59 pm 17:59 Mostly Cloudy 45 7.2 33 0.6 63 63 NNE 21 33 30.15 1021 10 16 0.00 0.00
6:59 pm 18:59 Partly Cloudy 45 7.2 32 0 61 61 N 21 33 30.17 1022 10 16 0.00 0.00
7:59 pm 19:59 Partly Cloudy 44 6.7 30 -1.1 58 58 NNE 25 41 30.19 1023 10 16 0.00 0.00
8:59 pm 20:59 Mostly Clear 43 6.1 27 -2.8 53 53 NNE 24 39 30.22 1023 10 16 0.00 0.00
9:59 pm 21:59 Partly Cloudy 42 5.6 27 -2.8 55 55 N 23 37 30.24 1024 10 16 0.00 0.00
10:59 pm 22:59 Mostly Clear 41 5 26 -3.3 55 55 NNE 22 35 30.24 1024 10 16 0.00 0.00
11:59 pm 23:59 Mostly Clear 41 5 25 -3.9 53 53 NNE 20 31 30.26 1025 10 16 0.00 0.00

Powered by AerisWeather